TimeEDT,TemperatureF,Dew PointF,Humidity,Sea Level PressureIn,VisibilityMPH,Wind Direction,Wind SpeedMPH,Gust SpeedMPH,PrecipitationIn,Events,Conditions,WindDirDegrees,DateUTC
12:10 AM,71.6,71.6,100,29.85,5.0,Calm,Calm,-,N/A,,Mostly Cloudy,0,2013-08-29 04:10:00
12:30 AM,71.6,71.6,100,29.85,7.0,Calm,Calm,-,N/A,,Mostly Cloudy,0,2013-08-29 04:30:00
12:50 AM,73.4,73.4,100,29.84,7.0,Calm,Calm,-,N/A,,Overcast,0,2013-08-29 04:50:00
1:10 AM,73.4,73.4,100,29.84,5.0,Calm,Calm,-,N/A,,Drizzle,0,2013-08-29 05:10:00
1:30 AM,73.4,71.6,94,29.84,7.0,Calm,Calm,-,N/A,Rain,Light Rain,0,2013-08-29 05:30:00
1:50 AM,73.4,71.6,94,29.84,5.0,Calm,Calm,-,N/A,,Light Drizzle,0,2013-08-29 05:50:00
2:10 AM,71.6,71.6,100,29.84,5.0,Calm,Calm,-,N/A,,Light Drizzle,0,2013-08-29 06:10:00
2:30 AM,71.6,71.6,100,29.84,7.0,Calm,Calm,-,N/A,,Overcast,0,2013-08-29 06:30:00
2:50 AM,71.6,71.6,100,29.85,5.0,NE,5.8,-,N/A,Rain,Light Rain,50,2013-08-29 06:50:00
3:10 AM,71.6,71.6,100,29.86,7.0,Calm,Calm,-,N/A,,Mostly Cloudy,0,2013-08-29 07:10:00
3:31 AM,71.6,71.6,100,29.86,10.0,NNE,4.6,-,N/A,,Scattered Clouds,20,2013-08-29 07:31:00
3:51 AM,71.6,71.6,100,29.86,7.0,NNE,3.5,-,N/A,,Mostly Cloudy,20,2013-08-29 07:51:00
4:11 AM,71.6,71.6,100,29.87,7.0,NNE,4.6,-,N/A,,Mostly Cloudy,30,2013-08-29 08:11:00
4:31 AM,71.6,71.6,100,29.87,7.0,NNE,4.6,-,N/A,,Scattered Clouds,30,2013-08-29 08:31:00
4:51 AM,71.6,71.6,100,29.87,5.0,NNE,3.5,-,N/A,,Scattered Clouds,30,2013-08-29 08:51:00
5:11 AM,71.6,69.8,94,29.87,7.0,NNE,3.5,-,N/A,,Mostly Cloudy,20,2013-08-29 09:11:00
5:31 AM,71.6,69.8,94,29.88,7.0,NNE,4.6,-,N/A,,Mostly Cloudy,20,2013-08-29 09:31:00
5:51 AM,71.6,69.8,94,29.89,7.0,NNE,5.8,-,N/A,,Mostly Cloudy,20,2013-08-29 09:51:00
6:11 AM,71.6,69.8,94,29.89,7.0,NNE,6.9,-,N/A,,Overcast,30,2013-08-29 10:11:00
6:31 AM,71.6,69.8,94,29.91,7.0,NNE,6.9,-,N/A,,Overcast,30,2013-08-29 10:31:00
6:51 AM,71.6,71.6,100,29.91,4.0,NE,5.8,-,N/A,,Overcast,50,2013-08-29 10:51:00
7:11 AM,71.6,71.6,100,29.92,4.0,NE,5.8,-,N/A,,Overcast,40,2013-08-29 11:11:00
7:31 AM,71.6,71.6,100,29.92,4.0,NE,5.8,-,N/A,,Overcast,50,2013-08-29 11:31:00
7:51 AM,71.6,71.6,100,29.93,4.0,NE,3.5,-,N/A,,Overcast,50,2013-08-29 11:51:00
8:11 AM,71.6,71.6,100,29.93,4.0,NE,5.8,-,N/A,,Overcast,50,2013-08-29 12:11:00
8:31 AM,73.4,71.6,94,29.94,5.0,NNE,4.6,-,N/A,,Overcast,30,2013-08-29 12:31:00
8:51 AM,73.4,71.6,94,29.95,5.0,NE,3.5,-,N/A,,Overcast,40,2013-08-29 12:51:00
9:11 AM,73.4,69.8,88,29.95,7.0,NE,6.9,-,N/A,,Overcast,40,2013-08-29 13:11:00
9:31 AM,73.4,69.8,88,29.95,7.0,NE,5.8,-,N/A,,Overcast,40,2013-08-29 13:31:00
9:51 AM,73.4,69.8,88,29.96,7.0,NE,6.9,-,N/A,,Overcast,50,2013-08-29 13:51:00
10:11 AM,77.0,69.8,78,29.95,7.0,NNE,3.5,-,N/A,,Mostly Cloudy,30,2013-08-29 14:11:00
10:31 AM,77.0,69.8,78,29.96,10.0,NE,6.9,-,N/A,,Scattered Clouds,50,2013-08-29 14:31:00
10:51 AM,77.0,69.8,78,29.97,10.0,NNE,4.6,-,N/A,,Mostly Cloudy,30,2013-08-29 14:51:00
11:11 AM,77.0,69.8,78,29.97,10.0,NNE,9.2,-,N/A,,Overcast,20,2013-08-29 15:11:00
11:31 AM,77.0,69.8,78,29.98,10.0,North,8.1,-,N/A,,Overcast,10,2013-08-29 15:31:00
11:51 AM,77.0,69.8,78,29.98,10.0,NNE,8.1,-,N/A,,Mostly Cloudy,20,2013-08-29 15:51:00
12:11 PM,78.8,69.8,74,29.98,10.0,NE,8.1,-,N/A,,Scattered Clouds,40,2013-08-29 16:11:00
12:32 PM,78.8,69.8,74,29.98,10.0,North,9.2,-,N/A,,Mostly Cloudy,360,2013-08-29 16:32:00
12:52 PM,78.8,71.6,78,29.98,10.0,North,6.9,-,N/A,,Scattered Clouds,350,2013-08-29 16:52:00
1:12 PM,78.8,69.8,74,29.98,10.0,NNW,12.7,17.3,N/A,,Scattered Clouds,340,2013-08-29 17:12:00
1:52 PM,77.0,69.8,78,29.99,10.0,NNW,12.7,17.3,N/A,,Scattered Clouds,340,2013-08-29 17:52:00
2:12 PM,78.8,69.8,74,29.99,10.0,NNW,8.1,-,N/A,,Scattered Clouds,340,2013-08-29 18:12:00
2:32 PM,78.8,69.8,74,29.98,10.0,North,8.1,-,N/A,,Clear,350,2013-08-29 18:32:00
2:52 PM,80.6,69.8,70,29.98,10.0,NNW,10.4,-,N/A,,Clear,330,2013-08-29 18:52:00
3:12 PM,80.6,69.8,70,29.97,10.0,North,9.2,-,N/A,,Clear,350,2013-08-29 19:12:00
3:32 PM,80.6,69.8,70,29.97,10.0,North,8.1,-,N/A,,Clear,350,2013-08-29 19:32:00
3:52 PM,80.6,69.8,70,29.98,10.0,North,8.1,-,N/A,,Clear,350,2013-08-29 19:52:00
4:12 PM,80.6,69.8,70,29.97,10.0,North,8.1,-,N/A,,Clear,350,2013-08-29 20:12:00
4:32 PM,80.6,69.8,70,29.98,10.0,NNW,6.9,-,N/A,,Clear,330,2013-08-29 20:32:00
4:52 PM,82.4,69.8,66,29.97,10.0,North,6.9,-,N/A,,Scattered Clouds,360,2013-08-29 20:52:00
5:12 PM,78.8,68.0,69,29.98,10.0,East,9.2,-,N/A,,Mostly Cloudy,90,2013-08-29 21:12:00
5:32 PM,80.6,68.0,65,29.98,10.0,East,6.9,-,N/A,,Scattered Clouds,80,2013-08-29 21:32:00
5:52 PM,80.6,68.0,65,29.98,10.0,ENE,8.1,-,N/A,,Clear,70,2013-08-29 21:52:00
6:12 PM,80.6,68.0,65,29.98,10.0,East,5.8,-,N/A,,Clear,100,2013-08-29 22:12:00
6:32 PM,80.6,68.0,65,29.98,10.0,East,3.5,-,N/A,,Clear,100,2013-08-29 22:32:00
6:52 PM,78.8,68.0,69,29.98,10.0,East,3.5,-,N/A,,Clear,80,2013-08-29 22:52:00
7:12 PM,78.8,68.0,69,29.99,10.0,ESE,3.5,-,N/A,,Clear,110,2013-08-29 23:12:00
7:32 PM,78.8,68.0,69,30.00,10.0,SE,3.5,-,N/A,,Scattered Clouds,130,2013-08-29 23:32:00
7:52 PM,78.8,68.0,69,30.00,10.0,SE,5.8,-,N/A,,Mostly Cloudy,130,2013-08-29 23:52:00
8:12 PM,77.0,68.0,74,30.01,10.0,ESE,6.9,-,N/A,,Scattered Clouds,120,2013-08-30 00:12:00
8:32 PM,77.0,68.0,74,30.01,10.0,ESE,5.8,-,N/A,,Clear,120,2013-08-30 00:32:00
8:52 PM,75.2,68.0,78,30.02,10.0,SE,6.9,-,N/A,,Clear,130,2013-08-30 00:52:00
9:12 PM,73.4,68.0,83,30.02,10.0,SE,9.2,-,N/A,,Clear,130,2013-08-30 01:12:00
9:32 PM,73.4,66.2,78,30.03,10.0,SE,6.9,-,N/A,,Clear,140,2013-08-30 01:32:00
9:53 PM,73.4,64.4,73,30.03,10.0,SE,9.2,-,N/A,,Clear,130,2013-08-30 01:53:00
10:13 PM,71.6,64.4,78,30.03,10.0,SE,8.1,-,N/A,,Clear,140,2013-08-30 02:13:00
10:33 PM,71.6,64.4,78,30.03,10.0,SE,9.2,-,N/A,,Clear,130,2013-08-30 02:33:00
10:53 PM,71.6,64.4,78,30.03,10.0,SE,6.9,-,N/A,,Mostly Cloudy,130,2013-08-30 02:53:00
11:13 PM,71.6,62.6,73,30.03,10.0,SE,8.1,-,N/A,,Mostly Cloudy,130,2013-08-30 03:13:00
11:33 PM,71.6,62.6,73,30.03,10.0,SE,8.1,-,N/A,,Scattered Clouds,140,2013-08-30 03:33:00
11:53 PM,71.6,64.4,78,30.03,10.0,SE,4.6,-,N/A,,Scattered Clouds,130,2013-08-30 03:53:00